EUTELSAT 53A

Last updated on Sun Apr 12 2026 00:02:53 GMT+0000 (Coordinated Universal Time)

1 40277U 14064A 26101.03208837 .00000099 00000+0 00000+0 0 9992 2 40277 0.0188 230.7855 0001313 192.4755 200.5455 1.00272524 40895
UTC large
Height (km)
Speed (km/s)
/
Latitude / Longitude
Inclination (degrees)
Orbital Period (minutes)
Azimuth
Elevation
Range (km)
Doppler Factor

Next 0 passes for location: London (51.5072 / 0.1276)

Sorry there are no passes over London.
EUTELSAT 53A